Port Edwards, WI

1:32 AM CDT on July 29, 2016 (GMT -0500)
Alexander Field South Wood County

Weather History for KISW - January, 2014

Change the Weather History Date:

Monday, January 13, 2014

  Actual Average Record
Temperature  
Mean Temperature 28 °F -  
Max Temperature 35 °F 23 °F 48 °F (1961)
Min Temperature 19 °F 5 °F -23 °F (1954)
Degree Days  
Heating Degree Days 37    
Moisture  
Dew Point 24 °F    
Average Humidity 75    
Maximum Humidity 89    
Minimum Humidity 54    
Precipitation  
Precipitation 0.00 in - - ()
Sea Level Pressure  
Sea Level Pressure 29.60 in    
Wind  
Wind Speed 8 mph (West)    
Max Wind Speed 16 mph    
Max Gust Speed 25 mph    
Visibility 10 miles    
Events      
Averages and records for this station are not official NWS values.
T = Trace of Precipitation, MM = Missing Value Source: NWS Daily Summary

Daily Weather History Graph

Daily Weather History Graph

Search for Another Location

Airport or City:

Trip Planner

Search our weather history database for the weather conditions in past years. The results will help you decide how hot, cold, wet, or windy it might be!

Date:

Astronomy

Jan. 13, 2014 Rise Set
Actual Time 7:32 AM CST 4:43 PM CST
Civil Twilight 7:00 AM CST 5:16 PM CST
Nautical Twilight 6:24 AM CST 5:52 PM CST
Astronomical Twilight 5:49 AM CST 6:26 PM CST
Moon 2:59 PM CST (1/13) 5:21 AM CST (1/13)
Length of Visible Light 10h 15m
Length of Day
9h 10m
Waxing Gibbous, 95% of the Moon is Illuminated
Jan 13
Waxing Gibbous
Jan 15
Full
Jan 23
Last Quarter
Jan 30
New
Feb 6
First Quarter

Hourly Weather History & Observations

Time (CST) Temp. Windchill Dew Point Humidity Pressure Visibility Wind Dir Wind Speed Gust Speed Precip Events Conditions
12:54 AM 35.1 °F 30.1 °F 30.0 °F 82% 29.52 in 10.0 mi SW 5.8 mph - N/A   Overcast
1:54 AM 35.1 °F 30.1 °F 30.0 °F 82% 29.52 in 10.0 mi SW 5.8 mph - N/A   Overcast
2:54 AM 35.1 °F 30.1 °F 30.0 °F 82% 29.52 in 10.0 mi SSW 5.8 mph - N/A   Overcast
3:54 AM 34.0 °F 28.8 °F 30.0 °F 85% 29.52 in 10.0 mi SW 5.8 mph - N/A   Overcast
4:54 AM 34.0 °F 28.8 °F 28.9 °F 82% 29.51 in 10.0 mi SW 5.8 mph - N/A   Overcast
5:54 AM 34.0 °F 29.8 °F 28.9 °F 82% 29.51 in 10.0 mi SW 4.6 mph - N/A   Overcast
6:54 AM 33.1 °F 27.7 °F 30.0 °F 89% 29.54 in 10.0 mi SW 5.8 mph - N/A   Overcast
7:54 AM 34.0 °F 28.0 °F 28.9 °F 82% 29.55 in 10.0 mi West 6.9 mph - N/A   Overcast
8:54 AM 34.0 °F 26.0 °F 28.9 °F 82% 29.55 in 10.0 mi West 10.4 mph - N/A   Overcast
9:40 AM 34.0 °F 23.8 °F 28.9 °F 82% 29.54 in 10.0 mi WNW 16.1 mph 21.9 mph N/A   Mostly Cloudy
9:54 AM 34.0 °F 24.6 °F 28.0 °F 79% 29.58 in 10.0 mi WNW 13.8 mph 24.2 mph N/A   Overcast
10:54 AM 33.1 °F 23.0 °F 28.0 °F 82% 29.59 in 10.0 mi WNW 15.0 mph 25.3 mph N/A   Overcast
11:54 AM 32.0 °F 21.2 °F 26.1 °F 79% 29.59 in 10.0 mi NW 16.1 mph 23.0 mph N/A   Overcast
12:05 PM 32.0 °F 22.5 °F 25.0 °F 75% 29.56 in 10.0 mi NW 12.7 mph 24.2 mph N/A   Overcast
12:54 PM 32.0 °F 21.2 °F 23.0 °F 69% 29.59 in 10.0 mi WNW 16.1 mph 25.3 mph N/A   Overcast
1:18 PM 32.0 °F 22.5 °F 23.0 °F 69% 29.55 in 10.0 mi NW 12.7 mph - N/A   Scattered Clouds
1:54 PM 34.0 °F 24.6 °F 23.0 °F 64% 29.59 in 10.0 mi WNW 13.8 mph 24.2 mph N/A   Scattered Clouds
2:54 PM 34.0 °F 24.2 °F 19.9 °F 56% 29.61 in 10.0 mi WNW 15.0 mph 21.9 mph N/A   Clear
3:54 PM 32.0 °F 23.0 °F 17.1 °F 54% 29.63 in 10.0 mi WNW 11.5 mph 21.9 mph N/A   Clear
4:54 PM 30.0 °F 25.2 °F 17.1 °F 59% 29.65 in 10.0 mi West 4.6 mph - N/A   Clear
5:54 PM 28.0 °F 20.8 °F 17.1 °F 63% 29.67 in 10.0 mi West 6.9 mph - N/A   Clear
6:54 PM 27.0 °F 17.3 °F 17.1 °F 66% 29.68 in 10.0 mi West 10.4 mph - N/A   Clear
7:54 PM 26.1 °F 17.6 °F 16.0 °F 66% 29.70 in 10.0 mi West 8.1 mph - N/A   Clear
8:54 PM 25.0 °F 19.3 °F 16.0 °F 69% 29.70 in 10.0 mi West 4.6 mph - N/A   Clear
9:54 PM 23.0 °F 18.4 °F 16.0 °F 74% 29.72 in 10.0 mi WSW 3.5 mph - N/A   Clear
10:54 PM 21.9 °F 17.2 °F 16.0 °F 78% 29.71 in 10.0 mi South 3.5 mph - N/A   Overcast
11:54 PM 19.9 °F - 15.1 °F 81% 29.69 in 10.0 mi Calm Calm - N/A   Overcast